Weather History for KHDE - February, 2013

Change the Weather History Date:

Thursday, February 14, 2013

  Actual Average Record
Temperature  
Mean Temperature 34 °F -  
Max Temperature 44 °F 41 °F 72 °F (1967)
Min Temperature 22 °F 19 °F -4 °F (2007)
Degree Days  
Heating Degree Days 32    
Moisture  
Dew Point 23 °F    
Average Humidity 66    
Maximum Humidity 87    
Minimum Humidity 39    
Precipitation  
Precipitation 0.00 in - - ()
Sea Level Pressure  
Sea Level Pressure 30.10 in    
Wind  
Wind Speed 13 mph (NW)    
Max Wind Speed 28 mph    
Max Gust Speed 39 mph    
Visibility 10 miles    
Events      
Averages and records for this station are not official NWS values.
T = Trace of Precipitation, MM = Missing Value Source: NWS Daily Summary

Daily Weather History Graph

Daily Weather History Graph

Search for Another Location

Airport or City:

Trip Planner

Search our weather history database for the weather conditions in past years. The results will help you decide how hot, cold, wet, or windy it might be!

Date:

Astronomy

Feb. 14, 2013 Rise Set
Actual Time 7:31 AM CST 6:11 PM CST
Civil Twilight 7:03 AM CST 6:39 PM CST
Nautical Twilight 6:31 AM CST 7:11 PM CST
Astronomical Twilight 6:00 AM CST 7:43 PM CST
Moon 9:33 AM CST (2/14) 11:17 PM CST (2/14)
Length of Visible Light 11h 35m
Length of Day
10h 40m
Waxing Crescent, 22% of the Moon is Illuminated
Feb 14
Waxing Crescent
Feb 17
First Quarter
Feb 25
Full
Mar 4
Last Quarter
Mar 11
New

Hourly Weather History & Observations

Time (CST) Temp. Windchill Dew Point Humidity Pressure Visibility Wind Dir Wind Speed Gust Speed Precip Events Conditions
12:15 AM 40.5 °F 32.8 °F 31.1 °F 69% 29.91 in 10.0 mi NW 13.8 mph - N/A   Scattered Clouds
12:35 AM 38.5 °F 30.7 °F 30.9 °F 74% 29.92 in 10.0 mi NW 12.7 mph - N/A   Scattered Clouds
12:55 AM 38.3 °F 29.7 °F 31.5 °F 76% 29.92 in 10.0 mi NW 15.0 mph - N/A   Clear
1:15 AM 36.5 °F 29.2 °F 30.6 °F 79% 29.93 in 10.0 mi NW 10.4 mph - N/A   Clear
1:35 AM 35.6 °F 28.6 °F 30.2 °F 81% 29.93 in 10.0 mi NW 9.2 mph - N/A   Clear
1:55 AM 35.1 °F 27.9 °F 30.2 °F 82% 29.94 in 10.0 mi NW 9.2 mph - N/A   Clear
2:15 AM 36.5 °F 28.7 °F 30.6 °F 79% 29.94 in 10.0 mi NW 11.5 mph - N/A   Clear
2:35 AM 35.4 °F 27.8 °F 30.0 °F 81% 29.94 in 10.0 mi NW 10.4 mph - N/A   Clear
2:55 AM 34.3 °F 27.0 °F 29.7 °F 83% 29.94 in 10.0 mi NW 9.2 mph 16.1 mph N/A   Clear
3:15 AM 32.9 °F 24.7 °F 29.3 °F 87% 29.95 in 10.0 mi NW 10.4 mph - N/A   Clear
3:35 AM 33.8 °F 27.7 °F 29.1 °F 83% 29.95 in 10.0 mi WNW 6.9 mph - N/A   Clear
3:55 AM 32.2 °F 24.4 °F 28.4 °F 86% 29.96 in 10.0 mi NW 9.2 mph - N/A   Clear
4:15 AM 32.4 °F 24.6 °F 28.8 °F 87% 29.96 in 10.0 mi NW 9.2 mph - N/A   Clear
4:35 AM 32.0 °F 24.2 °F 28.4 °F 87% 29.97 in 10.0 mi NW 9.2 mph - N/A   Clear
4:55 AM 31.8 °F 23.9 °F 28.4 °F 87% 29.97 in 10.0 mi NW 9.2 mph - N/A   Clear
5:15 AM 32.0 °F 24.8 °F 28.4 °F 87% 29.97 in 10.0 mi NW 8.1 mph - N/A   Clear
5:35 AM 33.8 °F 27.0 °F 29.1 °F 83% 29.97 in 10.0 mi NNW 8.1 mph - N/A   Clear
5:55 AM 33.4 °F 25.4 °F 29.1 °F 84% 29.96 in 10.0 mi NNW 10.4 mph - N/A   Clear
6:15 AM 32.9 °F 25.3 °F 28.8 °F 85% 29.97 in 10.0 mi NW 9.2 mph - N/A   Clear
6:35 AM 31.8 °F 23.9 °F 28.2 °F 87% 29.98 in 10.0 mi NW 9.2 mph - N/A   Clear
6:55 AM 32.2 °F 23.8 °F 28.4 °F 86% 29.98 in 10.0 mi NW 10.4 mph - N/A   Clear
7:15 AM 32.0 °F 23.6 °F 27.9 °F 85% 29.99 in 10.0 mi NW 10.4 mph - N/A   Clear
7:35 AM 31.5 °F 24.9 °F 27.1 °F 84% 30.00 in 10.0 mi NW 6.9 mph - N/A   Clear
7:55 AM 30.9 °F 24.3 °F 27.3 °F 86% 30.01 in 10.0 mi WNW 6.9 mph - N/A   Clear
8:15 AM 31.6 °F 27.0 °F 27.5 °F 85% 30.02 in 10.0 mi WNW 4.6 mph - N/A   Clear
8:35 AM 32.5 °F 26.2 °F 28.2 °F 84% 30.02 in 10.0 mi NW 6.9 mph - N/A   Scattered Clouds
8:55 AM 33.8 °F 29.6 °F 29.1 °F 83% 30.04 in 10.0 mi NW 4.6 mph - N/A   Scattered Clouds
9:15 AM 35.4 °F 29.0 °F 28.4 °F 76% 30.05 in 10.0 mi WNW 8.1 mph - N/A   Scattered Clouds
9:35 AM 36.3 °F 30.1 °F 28.4 °F 73% 30.06 in 10.0 mi NW 8.1 mph - N/A   Overcast
9:55 AM 37.4 °F 30.8 °F 28.2 °F 69% 30.07 in 10.0 mi NW 9.2 mph - N/A   Overcast
10:15 AM 38.3 °F 31.9 °F 27.3 °F 65% 30.07 in 10.0 mi NW 9.2 mph - N/A   Overcast
10:35 AM 38.8 °F 31.2 °F 25.3 °F 58% 30.07 in 10.0 mi NW 12.7 mph - N/A   Mostly Cloudy
10:55 AM 39.6 °F 32.5 °F 24.3 °F 54% 30.08 in 10.0 mi NNW 11.5 mph - N/A   Mostly Cloudy
11:15 AM 40.6 °F 33.0 °F 24.3 °F 52% 30.08 in 10.0 mi NNW 13.8 mph - N/A   Mostly Cloudy
11:35 AM 41.9 °F 35.4 °F 23.2 °F 47% 30.08 in 10.0 mi NW 11.5 mph 18.4 mph N/A   Scattered Clouds
11:55 AM 41.7 °F 34.8 °F 23.5 °F 49% 30.09 in 10.0 mi NNW 12.7 mph 20.7 mph N/A   Mostly Cloudy
12:15 PM 42.1 °F 35.2 °F 22.8 °F 46% 30.09 in 10.0 mi NNW 12.7 mph - N/A   Mostly Cloudy
12:35 PM 43.3 °F 36.1 °F 21.4 °F 42% 30.09 in 10.0 mi NNW 15.0 mph 21.9 mph N/A   Mostly Cloudy
12:55 PM 44.2 °F 37.3 °F 20.8 °F 39% 30.09 in 10.0 mi NNW 15.0 mph 20.7 mph N/A   Mostly Cloudy
1:15 PM 44.4 °F 36.4 °F 20.5 °F 39% 30.10 in 10.0 mi NW 19.6 mph 26.5 mph N/A   Overcast
1:35 PM 42.4 °F 34.4 °F 21.0 °F 43% 30.10 in 10.0 mi NNW 17.3 mph 31.1 mph N/A   Mostly Cloudy
1:55 PM 42.4 °F 33.5 °F 21.4 °F 43% 30.11 in 10.0 mi NNW 20.7 mph 29.9 mph N/A   Mostly Cloudy
2:15 PM 42.1 °F 33.6 °F 20.7 °F 42% 30.11 in 10.0 mi NNW 18.4 mph 29.9 mph N/A   Mostly Cloudy
2:35 PM 41.9 °F 33.1 °F 20.3 °F 42% 30.11 in 10.0 mi NW 19.6 mph 27.6 mph N/A   Mostly Cloudy
2:55 PM 41.5 °F 33.2 °F 21.2 °F 44% 30.12 in 10.0 mi NW 17.3 mph 25.3 mph N/A   Overcast
3:15 PM 41.0 °F 31.9 °F 20.3 °F 44% 30.13 in 10.0 mi NW 19.6 mph 28.8 mph N/A   Overcast
3:35 PM 41.2 °F 30.5 °F 17.6 °F 39% 30.13 in 10.0 mi NW 27.6 mph 34.5 mph N/A   Mostly Cloudy
3:55 PM 41.2 °F 31.1 °F 17.6 °F 39% 30.13 in 10.0 mi NNW 24.2 mph 34.5 mph N/A   Overcast
4:15 PM 39.4 °F 28.5 °F 18.5 °F 43% 30.15 in 10.0 mi NNW 25.3 mph 36.8 mph N/A   Mostly Cloudy
4:35 PM 38.5 °F 26.9 °F 16.5 °F 41% 30.17 in 10.0 mi NNW 27.6 mph 39.1 mph N/A   Clear
4:55 PM 38.3 °F 27.6 °F 16.5 °F 41% 30.17 in 10.0 mi NNW 23.0 mph 31.1 mph N/A   Scattered Clouds
5:15 PM 36.5 °F 24.7 °F 17.1 °F 45% 30.19 in 10.0 mi NNW 25.3 mph 34.5 mph N/A   Scattered Clouds
5:35 PM 35.8 °F 24.8 °F 17.1 °F 47% 30.20 in 10.0 mi NNW 20.7 mph 33.4 mph N/A   Clear
5:55 PM 34.3 °F 23.2 °F 17.2 °F 50% 30.20 in 10.0 mi NNW 19.6 mph 28.8 mph N/A   Clear
6:15 PM 33.8 °F 21.9 °F 17.8 °F 52% 30.21 in 10.0 mi NNW 21.9 mph 27.6 mph N/A   Clear
6:35 PM 32.2 °F 20.4 °F 18.5 °F 57% 30.22 in 10.0 mi North 19.6 mph 25.3 mph N/A   Clear
6:55 PM 31.1 °F 19.7 °F 17.6 °F 57% 30.23 in 10.0 mi North 17.3 mph 25.3 mph N/A   Clear
7:15 PM 30.4 °F 18.7 °F 17.4 °F 59% 30.25 in 10.0 mi NNW 17.3 mph 26.5 mph N/A   Clear
7:35 PM 29.5 °F 18.4 °F 17.2 °F 60% 30.25 in 10.0 mi NNW 15.0 mph 23.0 mph N/A   Clear
7:55 PM 28.9 °F 18.2 °F 17.6 °F 63% 30.26 in 10.0 mi NNW 13.8 mph - N/A   Clear
8:15 PM 28.2 °F 15.9 °F 18.0 °F 65% 30.26 in 10.0 mi North 17.3 mph 20.7 mph N/A   Clear
8:35 PM 27.5 °F 16.3 °F 18.1 °F 68% 30.27 in 10.0 mi North 13.8 mph 18.4 mph N/A   Clear
8:55 PM 27.0 °F 15.6 °F 18.1 °F 69% 30.27 in 10.0 mi North 13.8 mph 19.6 mph N/A   Clear
9:15 PM 26.2 °F 15.8 °F 18.1 °F 71% 30.28 in 10.0 mi North 11.5 mph - N/A   Clear
9:35 PM 26.2 °F 14.7 °F 18.0 °F 71% 30.29 in 10.0 mi North 13.8 mph - N/A   Clear
9:55 PM 25.2 °F 14.4 °F 17.6 °F 73% 30.29 in 10.0 mi North 11.5 mph - N/A   Clear
10:15 PM 25.0 °F 13.6 °F 17.6 °F 74% 30.29 in 10.0 mi North 12.7 mph - N/A   Clear
10:35 PM 23.9 °F 13.5 °F 17.4 °F 76% 30.29 in 10.0 mi NNW 10.4 mph - N/A   Clear
10:55 PM 24.6 °F 13.2 °F 17.6 °F 75% 30.30 in 10.0 mi North 12.7 mph 18.4 mph N/A   Clear
11:15 PM 23.7 °F 14.0 °F 17.4 °F 77% 30.30 in 10.0 mi North 9.2 mph - N/A   Clear
11:35 PM 23.0 °F 12.4 °F 17.2 °F 79% 30.30 in 10.0 mi North 10.4 mph - N/A   Clear
11:55 PM 22.6 °F 12.6 °F 16.9 °F 79% 30.30 in 10.0 mi North 9.2 mph - N/A   Clear